Date String (YYYY-MM-DD hh:mm:ss) UTC,Instrument flags,Ambient pressure (hPa),Sample flow (lpm),Bypass flow (lpm),Sample temperature (°C),Ambient temperature (°C),ASC tube jacket temperature (°C),LED temperature (°C),Box temperature (°C),Sample RH (%),Span deviation,Mass concentration (μg/m³),Mass concentration (μg/m³),Mass concentration (μg/m³)
DateTimeUTC,F1_M11,P_M11,Q1_M11,Q2_M11,T1_M11,T2_M11,T3_M11,T4_M11,T5_M11,U1_M11,ZSPAN_M11,X0_M11,X2_M11,X1_M11
2021-10-22 10:00:00,,0828.8,4.99,0.00,26.8,25.9,00.0,35.9,28.6,09.9,0000.0,0017.58,0004.40,0003.27
2021-10-22 10:01:00,,0828.8,5.01,0.00,26.8,25.9,00.0,35.9,28.6,09.9,0000.0,0017.35,0004.45,0003.29
2021-10-22 10:02:00,,0828.7,5.01,0.00,26.8,25.9,00.0,35.9,28.6,09.9,0000.0,0016.78,0004.47,0003.32
2021-10-22 10:03:00,,0828.8,5.00,0.00,26.8,25.9,00.0,35.9,28.6,09.9,0000.0,0016.00,0004.48,0003.35
2021-10-22 10:04:00,,0828.6,4.99,0.00,26.8,25.9,00.0,35.9,28.6,09.9,0000.0,0015.90,0004.50,0003.38
2021-10-22 10:05:00,,0828.7,5.02,0.00,26.8,25.9,00.0,35.9,28.6,09.9,0000.0,0015.16,0004.55,0003.40
2021-10-22 10:06:00,,0828.5,5.00,0.00,26.8,25.9,00.0,35.9,28.5,09.9,0000.0,0015.45,0004.59,0003.43
2021-10-22 10:07:00,,0828.5,4.99,0.00,26.8,25.9,00.0,35.9,28.6,09.9,0000.0,0015.16,0004.63,0003.45
2021-10-22 10:08:00,,0828.5,5.01,0.00,26.8,25.9,00.0,35.9,28.5,10.0,0000.0,0015.52,0004.70,0003.49
2021-10-22 10:09:00,,0828.5,5.00,0.00,26.8,25.9,00.0,35.9,28.5,09.9,0000.0,0015.30,0004.72,0003.49
2021-10-22 10:10:00,,0828.5,5.00,0.00,26.8,25.8,00.0,35.9,28.5,09.9,0000.0,0014.98,0004.72,0003.49
2021-10-22 10:11:00,,0828.5,5.00,0.00,26.7,25.8,00.0,35.9,28.5,09.9,0000.0,0015.82,0004.73,0003.48
2021-10-22 10:12:00,,0828.5,5.00,0.00,26.7,25.8,00.0,35.9,28.5,09.9,0000.0,0016.61,0004.70,0003.48
2021-10-22 10:13:00,,0828.5,5.00,0.00,26.7,25.8,00.0,35.8,28.5,09.9,0000.0,0018.14,0004.65,0003.45
2021-10-22 10:14:00,,0828.5,5.02,0.00,26.7,25.8,00.0,35.8,28.5,09.9,0000.0,0017.78,0004.62,0003.42
2021-10-22 10:15:00,,0828.5,5.00,0.00,26.7,25.8,00.0,35.8,28.5,09.9,0000.0,0017.56,0004.55,0003.37
2021-10-22 10:16:00,,0828.5,5.00,0.00,26.7,25.8,00.0,35.8,28.5,09.9,0000.0,0017.55,0004.51,0003.36
2021-10-22 10:17:00,,0828.5,4.99,0.00,26.7,25.8,00.0,35.8,28.5,09.9,0000.0,0017.50,0004.45,0003.35
2021-10-22 10:18:00,,0828.5,5.01,0.00,26.7,25.8,00.0,35.8,28.5,09.9,0000.0,0017.15,0004.45,0003.34
2021-10-22 10:19:00,,0828.5,4.99,0.00,26.7,25.8,00.0,35.8,28.5,09.9,0000.0,0016.37,0004.47,0003.34
2021-10-22 10:20:00,,0828.5,5.01,0.00,26.7,25.8,00.0,35.8,28.4,09.9,0000.0,0016.34,0004.49,0003.37
2021-10-22 10:21:00,,0828.5,4.99,0.00,26.7,25.8,00.0,35.8,28.5,09.9,0000.0,0016.20,0004.57,0003.40
2021-10-22 10:22:00,,0828.5,5.01,0.00,26.7,25.8,00.0,35.8,28.5,09.9,0000.0,0015.73,0004.65,0003.44
2021-10-22 10:23:00,,0828.4,5.00,0.00,26.7,25.8,00.0,35.8,28.5,09.9,0000.0,0015.14,0004.76,0003.46
2021-10-22 10:24:00,,0828.4,4.99,0.00,26.7,25.8,00.0,35.8,28.5,10.0,-000.4,0013.23,0004.83,0003.51
2021-10-22 10:25:00,,0828.5,5.00,0.00,26.7,25.7,00.0,35.8,28.5,10.0,-000.9,0012.88,0004.87,0003.55
2021-10-22 10:26:00,,0828.5,5.01,0.00,26.6,25.7,00.0,35.8,28.4,10.1,-001.1,0013.22,0004.93,0003.60
2021-10-22 10:27:00,,0828.5,4.99,0.00,26.6,25.7,00.0,35.8,28.4,10.1,-001.4,0013.19,0004.96,0003.61
2021-10-22 10:28:00,,0828.5,4.99,0.00,26.6,25.7,00.0,35.7,28.4,10.1,-000.6,0012.63,0004.99,0003.64
2021-10-22 10:29:00,,0828.5,5.00,0.00,26.6,25.7,00.0,35.7,28.4,10.1,0000.0,0012.59,0004.95,0003.63
2021-10-22 10:30:00,,0828.5,4.99,0.00,26.6,25.7,00.0,35.7,28.4,10.1,0000.0,0012.41,0004.84,0003.60
2021-10-22 10:31:00,,0828.4,5.01,0.00,26.6,25.7,00.0,35.7,28.4,10.1,0000.0,0012.56,0004.79,0003.58
2021-10-22 10:32:00,,0828.4,5.00,0.00,26.6,25.7,00.0,35.7,28.4,10.2,0000.0,0013.10,0004.71,0003.55
2021-10-22 10:33:00,,0828.3,5.01,0.00,26.6,25.7,00.0,35.7,28.4,10.2,0000.0,0014.25,0004.66,0003.50
2021-10-22 10:34:00,,0828.3,5.00,0.00,26.6,25.7,00.0,35.7,28.4,10.2,0000.0,0014.19,0004.59,0003.48
2021-10-22 10:35:00,,0828.3,5.01,0.00,26.6,25.7,00.0,35.7,28.4,10.3,0000.0,0014.17,0004.52,0003.46
2021-10-22 10:36:00,,0828.3,5.00,0.00,26.6,25.7,00.0,35.7,28.4,10.3,0000.0,0015.25,0004.43,0003.41
2021-10-22 10:37:00,,0828.3,5.00,0.00,26.6,25.7,00.0,35.7,28.4,10.2,0000.0,0016.23,0004.38,0003.38
2021-10-22 10:38:00,,0828.3,5.00,0.00,26.6,25.7,00.0,35.7,28.3,10.2,0000.0,0016.37,0004.30,0003.36
2021-10-22 10:39:00,,0828.3,5.00,0.00,26.6,25.7,00.0,35.7,28.3,10.2,0000.0,0016.56,0004.25,0003.33
2021-10-22 10:40:00,,0828.3,5.00,0.00,26.6,25.7,00.0,35.7,28.4,10.2,0000.0,0017.44,0004.25,0003.31
2021-10-22 10:41:00,,0828.3,5.00,0.00,26.6,25.7,00.0,35.7,28.4,10.2,0000.0,0017.57,0004.25,0003.30
2021-10-22 10:42:00,,0828.3,5.01,0.00,26.6,25.7,00.0,35.7,28.4,10.2,0000.0,0017.33,0004.29,0003.28
2021-10-22 10:43:00,,0828.4,4.98,0.00,26.6,25.7,00.0,35.7,28.4,10.2,0000.0,0017.20,0004.29,0003.26
2021-10-22 10:44:00,,0828.3,5.01,0.00,26.6,25.7,00.0,35.7,28.4,10.2,0000.0,0017.19,0004.21,0003.25
2021-10-22 10:45:00,,0828.4,5.01,0.00,26.6,25.7,00.0,35.7,28.4,10.3,0000.0,0016.30,0004.14,0003.22
2021-10-22 10:46:00,,0828.4,5.00,0.00,26.6,25.7,00.0,35.7,28.4,10.3,0000.0,0016.01,0004.10,0003.20
2021-10-22 10:47:00,,0828.4,5.00,0.00,26.6,25.7,00.0,35.7,28.4,10.3,0000.0,0015.58,0004.09,0003.17
2021-10-22 10:48:00,,0828.4,5.00,0.00,26.6,25.7,00.0,35.7,28.4,10.3,0000.0,0014.50,0004.05,0003.14
2021-10-22 10:49:00,,0828.4,4.99,0.00,26.6,25.7,00.0,35.6,28.4,10.3,0000.0,0013.35,0004.01,0003.11
2021-10-22 10:50:00,,0828.4,5.01,0.00,26.6,25.7,00.0,35.6,28.4,10.3,0000.0,0013.91,0004.00,0003.06
2021-10-22 10:51:00,,0828.5,4.99,0.00,26.6,25.6,00.0,35.6,28.4,10.3,0000.0,0013.53,0004.01,0003.02
2021-10-22 10:52:00,,0828.5,5.01,0.00,26.6,25.7,00.0,35.6,28.3,10.3,0000.0,0013.48,0004.01,0003.01
2021-10-22 10:53:00,,0828.3,5.00,0.00,26.6,25.7,00.0,35.6,28.3,10.3,0000.0,0013.36,0003.94,0002.99
2021-10-22 10:54:00,,0828.3,4.99,0.00,26.5,25.6,00.0,35.6,28.4,10.2,0000.0,0012.44,0003.91,0002.95
2021-10-22 10:55:00,,0828.3,4.99,0.00,26.5,25.6,00.0,35.6,28.3,10.2,0000.0,0010.62,0003.88,0002.89
2021-10-22 10:56:00,,0828.4,5.01,0.00,26.5,25.6,00.0,35.6,28.3,10.2,0000.0,0010.71,0003.85,0002.84
2021-10-22 10:57:00,,0828.3,4.99,0.00,26.5,25.6,00.0,35.6,28.3,10.2,0000.0,0011.09,0003.83,0002.79
2021-10-22 10:58:00,,0828.4,5.01,0.00,26.5,25.6,00.0,35.6,28.3,10.2,0000.0,0011.39,0003.83,0002.77
2021-10-22 10:59:00,,0828.3,4.99,0.00,26.5,25.6,00.0,35.6,28.3,10.2,0000.0,0011.56,0003.88,0002.76
